Alexandria, Egypt

2:12 AM EET on July 24, 2017 (GMT +0200)
Alexandria

Weather History for HEAX - October, 2012

Change the Weather History Date:

Friday, October 12, 2012

  Actual Average Record
Temperature  
Mean Temperature 74 °F -  
Max Temperature 84 °F 76 °F 89 °F (2015)
Min Temperature 64 °F 61 °F 60 °F (1997)
Cooling Degree Days 9    
Growing Degree Days 24 (Base 50)    
Moisture  
Dew Point 66 °F    
Average Humidity 75    
Maximum Humidity 94    
Minimum Humidity 49    
Precipitation  
Precipitation 0.00 in 0.02 in - ()
Sea Level Pressure  
Sea Level Pressure 29.99 in    
Wind  
Wind Speed 2 mph ()    
Max Wind Speed 10 mph    
Max Gust Speed -    
Visibility 5.6 miles    
Events      
Averages and records for this station are not official NWS values.
T = Trace of Precipitation, MM = Missing Value Source: Averaged Metar Reports

Daily Weather History Graph

Daily Weather History Graph

Search for Another Location

Airport or City:

Trip Planner

Search our weather history database for the weather conditions in past years. The results will help you decide how hot, cold, wet, or windy it might be!

Date:

Astronomy

Oct. 12, 2012 Rise Set
Actual Time 6:01 AM EET 5:31 PM EET
Civil Twilight 5:36 AM EET 5:56 PM EET
Nautical Twilight 5:08 AM EET 6:24 PM EET
Astronomical Twilight 4:40 AM EET 6:52 PM EET
Moon 2:34 AM EET (10/12) 3:20 PM EET (10/12)
Length of Visible Light 12h 19m
Length of Day
11h 30m
Waning Crescent, 12% of the Moon is Illuminated
Oct 12
Waning Crescent
Oct 15
New
Oct 22
First Quarter
Oct 29
Full
Nov 7
Last Quarter

Hourly Weather History & Observations

Time (EET) Temp. Heat Index Dew Point Humidity Pressure Visibility Wind Dir Wind Speed Gust Speed Precip Events Conditions
12:00 AM 68.0 °F - 64.4 °F 88% 29.95 in - Calm Calm - N/A   Clear
2:00 AM 67 °F - 64 °F 88% 29.94 in 6 mi Calm Calm - -  
2:00 AM 66.2 °F - 64.4 °F 94% 29.95 in - Calm Calm - N/A   Clear
3:00 AM 66.2 °F - 64.4 °F 94% 29.95 in - Calm Calm - N/A   Clear
4:00 AM 66.2 °F - 64.4 °F 94% 29.98 in - Calm Calm - N/A   Clear
5:00 AM 66.2 °F - 64.4 °F 94% 29.98 in - Calm Calm - N/A   Clear
6:00 AM 64.4 °F - 62.6 °F 94% 29.98 in - Calm Calm - N/A   Clear
7:00 AM 66.2 °F - 64.4 °F 94% 29.98 in 1.9 mi Calm Calm - N/A   Mist
8:00 AM 72 °F - 68 °F 82% 29.99 in 4 mi South 3.5 mph - -   Mist
8:00 AM 71.6 °F - 68.0 °F 88% 29.98 in 3.7 mi South 3.5 mph - N/A   Unknown
9:00 AM 75.2 °F - 68.0 °F 78% 29.98 in 3.7 mi South 3.5 mph - N/A   Unknown
10:00 AM 80.6 °F 82.7 °F 66.2 °F 61% 30.01 in 6.2 mi South 3.5 mph - N/A   Scattered Clouds
11:00 AM 84.2 °F 85.6 °F 64.4 °F 51% 30.01 in 6.2 mi East 3.5 mph - N/A   Scattered Clouds
12:00 PM 82.4 °F 84.6 °F 66.2 °F 58% 29.98 in 6.2 mi NNW 5.8 mph - N/A   Scattered Clouds
1:00 PM 80.6 °F 83.2 °F 68.0 °F 65% 29.98 in 6.2 mi NNW 6.9 mph - N/A   Scattered Clouds
2:00 PM 82 °F - 66 °F 49% 29.99 in 6 mi North 9.2 mph - -   Partly Cloudy
3:00 PM 80.6 °F 82.7 °F 66.2 °F 61% 29.98 in 6.2 mi North 10.4 mph - N/A   Scattered Clouds
4:00 PM 78.8 °F - 66.2 °F 65% 29.98 in 6.2 mi North 5.8 mph - N/A   Scattered Clouds
5:00 PM 78.8 °F - 66.2 °F 65% 29.98 in 6.2 mi North 6.9 mph - N/A   Scattered Clouds
6:00 PM 77.0 °F - 66.2 °F 69% 30.01 in 6.2 mi NE 5.8 mph - N/A   Scattered Clouds
7:00 PM 77.0 °F - 66.2 °F 69% 30.01 in 6.2 mi NNE 4.6 mph - N/A   Scattered Clouds
8:00 PM 76 °F - 66 °F 63% 30.01 in 6 mi North 8.1 mph - -   Partly Cloudy
8:00 PM 77.0 °F - 66.2 °F 69% 30.01 in 6.2 mi NE 8.1 mph - N/A   Scattered Clouds
9:00 PM 75.2 °F - 66.2 °F 73% 30.01 in 6.2 mi NE 4.6 mph - N/A   Partly Cloudy
10:00 PM 75.2 °F - 66.2 °F 73% 30.01 in 6.2 mi NE 3.5 mph - N/A   Partly Cloudy
11:00 PM 75.2 °F - 66.2 °F 73% 30.04 in - NE 3.5 mph - N/A   Clear